Jamestown, NY

10:30 PM EST on December 08, 2019 (GMT -0500)
Chautauqua County-Jamestown

Weather History for KJHW - October, 2019

Change the Weather History Date:

Monday, October 14, 2019

  Actual Average Record
Temperature  
Mean Temperature 46 °F -  
Max Temperature 52 °F 60 °F 80 °F (1960)
Min Temperature 42 °F 35 °F 18 °F (1987)
Degree Days  
Heating Degree Days 18    
Moisture  
Dew Point 40 °F    
Average Humidity 83    
Maximum Humidity 93    
Minimum Humidity 57    
Precipitation  
Precipitation 0.06 in - - ()
Sea Level Pressure  
Sea Level Pressure 30.00 in    
Wind  
Wind Speed 7 mph (West)    
Max Wind Speed 13 mph    
Max Gust Speed 21 mph    
Visibility 10 miles    
Events Rain    
Averages and records for this station are not official NWS values.
T = Trace of Precipitation, MM = Missing Value Source: NWS Daily Summary

Daily Weather History Graph

Daily Weather History Graph

Search for Another Location

Airport or City:

Astronomy

Oct. 14, 2019 Rise Set
Actual Time 7:28 AM EDT 6:37 PM EDT
Civil Twilight 7:00 AM EDT 7:05 PM EDT
Nautical Twilight 6:27 AM EDT 7:37 PM EDT
Astronomical Twilight 5:55 AM EDT 8:10 PM EDT
Moon 7:26 PM EDT (10/14) 7:57 AM EDT (10/14)
Length of Visible Light 12h 05m
Length of Day
11h 08m
Waxing Gibbous, 99% of the Moon is Illuminated
Oct 14
Waxing Gibbous
Oct 21
Last Quarter
Oct 27
New
Nov 4
First Quarter
Nov 12
Full

Hourly Weather History & Observations

Time (EDT) Temp. Windchill Dew Point Humidity Pressure Visibility Wind Dir Wind Speed Gust Speed Precip Events Conditions
12:56 AM 50.0 °F - 35.1 °F 57% 29.91 in 10.0 mi SSW 9.2 mph - N/A   Clear
1:56 AM 50.0 °F - 36.0 °F 59% 29.89 in 10.0 mi South 6.9 mph - N/A   Clear
2:56 AM 51.1 °F - 37.0 °F 59% 29.89 in 10.0 mi SW 8.1 mph - N/A   Clear
3:56 AM 50.0 °F - 37.0 °F 61% 29.89 in 10.0 mi SW 8.1 mph - N/A   Partly Cloudy
4:56 AM 48.0 °F - 37.9 °F 68% 29.90 in 10.0 mi SW 9.2 mph - N/A   Clear
5:56 AM 46.9 °F - 39.0 °F 74% 29.93 in 10.0 mi WNW 5.8 mph - N/A   Mostly Cloudy
6:56 AM 45.0 °F 41.2 °F 39.9 °F 82% 29.95 in 10.0 mi WNW 6.9 mph - N/A   Overcast
7:05 AM 44.6 °F 40.7 °F 39.2 °F 81% 29.92 in 10.0 mi WNW 6.9 mph - N/A   Mostly Cloudy
7:13 AM 46.4 °F 43.5 °F 39.2 °F 76% 29.92 in 10.0 mi West 5.8 mph - N/A   Overcast
7:24 AM 46.4 °F 44.3 °F 39.2 °F 76% 29.93 in 10.0 mi West 4.6 mph - N/A   Overcast
7:56 AM 44.1 °F - 39.9 °F 85% 29.97 in 10.0 mi Calm Calm - N/A   Overcast
8:15 AM 44.6 °F 43.1 °F 39.2 °F 81% 29.94 in 10.0 mi WSW 3.5 mph - N/A   Overcast
8:56 AM 46.0 °F 43.9 °F 41.0 °F 83% 29.98 in 10.0 mi SW 4.6 mph - N/A   Overcast
9:21 AM 46.4 °F 43.5 °F 42.8 °F 87% 29.95 in 10.0 mi SW 5.8 mph - N/A   Overcast
9:56 AM 46.0 °F 42.5 °F 42.1 °F 86% 29.99 in 10.0 mi NW 6.9 mph - 0.00 in Rain Light Rain
10:21 AM 44.6 °F 40.2 °F 42.8 °F 93% 29.98 in 10.0 mi NW 8.1 mph - 0.01 in Rain Light Rain
10:34 AM 44.6 °F 41.4 °F 42.8 °F 93% 29.98 in 10.0 mi North 5.8 mph - 0.01 in Rain Light Rain
10:56 AM 44.1 °F 40.8 °F 42.1 °F 93% 30.02 in 10.0 mi NNW 5.8 mph - 0.01 in Rain Light Rain
11:01 AM 44.6 °F 41.4 °F 42.8 °F 93% 29.99 in 9.0 mi NNW 5.8 mph - 0.00 in Rain Light Rain
11:13 AM 44.6 °F 40.2 °F 42.8 °F 93% 29.99 in 7.0 mi NW 8.1 mph - 0.01 in Rain Light Rain
11:56 AM 44.1 °F 39.5 °F 42.1 °F 93% 30.03 in 9.0 mi NNW 8.1 mph - 0.02 in Rain Light Rain
12:26 PM 44.6 °F 40.2 °F 41.0 °F 87% 30.00 in 10.0 mi NW 8.1 mph - 0.01 in Rain Light Rain
12:34 PM 42.8 °F 38.6 °F 41.0 °F 93% 30.00 in 6.0 mi NW 6.9 mph - 0.01 in Rain Light Rain
12:56 PM 44.1 °F 42.5 °F 41.0 °F 89% 30.04 in 10.0 mi NW 3.5 mph - 0.02 in   Overcast
1:43 PM 44.6 °F 43.1 °F 41.0 °F 87% 30.01 in 10.0 mi Variable 3.5 mph - 0.01 in   Overcast
1:56 PM 45.0 °F 41.2 °F 41.0 °F 86% 30.04 in 10.0 mi WSW 6.9 mph - 0.01 in   Overcast
2:15 PM 44.6 °F 39.7 °F 42.8 °F 93% 30.00 in 10.0 mi WSW 9.2 mph - N/A   Overcast
2:56 PM 46.0 °F 40.6 °F 42.1 °F 86% 30.04 in 10.0 mi WSW 11.5 mph 18.4 mph N/A   Overcast
3:23 PM 46.4 °F 40.7 °F 41.0 °F 81% 30.01 in 10.0 mi WSW 12.7 mph - N/A   Overcast
3:56 PM 45.0 °F 38.9 °F 39.9 °F 82% 30.06 in 10.0 mi West 12.7 mph 20.7 mph 0.00 in   Overcast
4:56 PM 45.0 °F 40.6 °F 39.9 °F 82% 30.07 in 10.0 mi West 8.1 mph - N/A   Overcast
5:56 PM 44.1 °F 39.5 °F 39.9 °F 85% 30.08 in 10.0 mi WNW 8.1 mph - N/A   Overcast
6:56 PM 44.1 °F 40.8 °F 37.9 °F 79% 30.10 in 10.0 mi West 5.8 mph - N/A   Overcast
7:56 PM 44.1 °F 42.5 °F 39.0 °F 82% 30.12 in 10.0 mi West 3.5 mph - N/A   Overcast
8:56 PM 43.0 °F 40.3 °F 39.0 °F 86% 30.12 in 10.0 mi SW 4.6 mph - N/A   Overcast
9:56 PM 42.1 °F 40.2 °F 39.9 °F 92% 30.13 in 10.0 mi SW 3.5 mph - N/A   Overcast
10:56 PM 42.1 °F 39.2 °F 39.0 °F 89% 30.14 in 10.0 mi WSW 4.6 mph - N/A   Mostly Cloudy
11:56 PM 42.1 °F 39.2 °F 39.9 °F 92% 30.15 in 10.0 mi WSW 4.6 mph - N/A   Overcast